Location: Ashton River Estates
(39.1762°N, 77.0261°W)
Time: 23:35:47
(UTC+00:00)

Cosmos 1408 - Pass Details

Date: 29 October 2020
Orbit: 470 x 492 km, 82.6° (Epoch: 03 December)

Event Time Altitude Azimuth Distance (km) Brightness Sun altitude
Rises 22:57:24 0° 6° (N) 2,558 6.1 -9.8°
Reaches altitude 10° 22:59:48 10° 21° (NNE) 1,677 5.0 -10.2°
Maximum altitude 23:02:50 24° 76° (ENE) 1,053 3.6 -10.8°
Drops below altitude 10° 23:05:51 10° 132° (SE) 1,676 4.9 -11.4°
Sets 23:08:14 0° 146° (SSE) 2,555 6.0 -11.8°
